Change the Weather History Date:

Monday, February 13, 2012

  Actual Average Record
Temperature  
Mean Temperature 23 °F 20 °F  
Max Temperature 29 °F 29 °F 53 °F (1954)
Min Temperature 16 °F 11 °F -27 °F (1905)
Degree Days  
Heating Degree Days 42 45  
Month to date heating degree days 512 608  
Since 1 July heating degree days 4464 5219  
Cooling Degree Days 0 0  
Month to date cooling degree days 0 0  
Year to date cooling degree days 0 0  
Moisture  
Dew Point 24 °F    
Average Humidity 75    
Maximum Humidity 100    
Minimum Humidity 50    
Precipitation  
Precipitation 0.05 in 0.04 in 1.30 in (1906)
Month to date precipitation 0.05 0.42  
Year to date precipitation 0.95 1.24  
Snow  
Snow 1.00 in 0.20 in 10.00 in (1923)
Month to date snowfall 1.0 4.0  
Since 1 July snowfall 16.4 28.8  
Snow Depth 2.00 in    
Sea Level Pressure  
Sea Level Pressure 29.84 in    
Wind  
Wind Speed 10 mph (South)    
Max Wind Speed 18 mph    
Max Gust Speed 25 mph    
Visibility 3 miles    
Events Snow    
T = Trace of Precipitation, MM = Missing Value Source: NWS Daily Summary

Daily Weather History Graph

Daily Weather History Graph

Search for Another Location

Airport or City:

Trip Planner

Search our weather history database for the weather conditions in past years. The results will help you decide how hot, cold, wet, or windy it might be!

Date:

Astronomy

Feb. 13, 2012 Rise Set
Actual Time 7:14 AM CST 5:41 PM CST
Civil Twilight 6:45 AM CST 6:10 PM CST
Nautical Twilight 6:11 AM CST 6:43 PM CST
Astronomical Twilight 5:38 AM CST 7:16 PM CST
Moon No Moon Rise 10:00 AM CST (2/13)
Length of Visible Light 11h 25m
Length of Day
10h 26m
Waning Gibbous, 61% of the Moon is Illuminated
Feb 13
Waning Gibbous
Feb 14
Last Quarter
Feb 21
New
Feb 29
First Quarter
Mar 8
Full

Hourly Weather History & Observations

Time (CST) Temp. Windchill Dew Point Humidity Pressure Visibility Wind Dir Wind Speed Gust Speed Precip Events Conditions
1:53 AM 19.9 °F 10.1 °F 8.1 °F 60% 30.10 in 10.0 mi South 8.1 mph - N/A   Overcast
2:53 AM 23.0 °F 13.1 °F 8.1 °F 53% 30.06 in 10.0 mi South 9.2 mph - N/A   Overcast
3:53 AM 23.0 °F 14.7 °F 10.0 °F 58% 30.04 in 10.0 mi SSE 6.9 mph - N/A   Overcast
4:53 AM 24.1 °F 15.2 °F 10.9 °F 57% 30.02 in 10.0 mi South 8.1 mph - N/A   Overcast
5:53 AM 27.0 °F 17.3 °F 10.9 °F 51% 30.01 in 10.0 mi South 10.4 mph - N/A   Overcast
6:53 AM 27.0 °F 16.1 °F 10.9 °F 51% 29.99 in 10.0 mi South 12.7 mph - N/A   Overcast
7:36 AM 24.8 °F 14.6 °F 19.4 °F 80% 29.95 in 2.0 mi South 10.4 mph - 0.00 in Snow Light Snow
7:46 AM 24.8 °F 12.9 °F 19.4 °F 80% 29.95 in 1.2 mi South 13.8 mph - 0.00 in Snow Light Snow
7:53 AM 24.1 °F 13.1 °F 19.9 °F 84% 29.99 in 1.0 mi South 11.5 mph - 0.00 in Snow Light Snow
8:03 AM 24.8 °F 14.6 °F 19.4 °F 80% 29.94 in 1.0 mi South 10.4 mph - 0.00 in Snow Light Snow
8:43 AM 24.8 °F 14.0 °F 21.2 °F 86% 29.93 in 0.8 mi South 11.5 mph - 0.00 in Snow Light Snow
8:53 AM 24.1 °F 13.7 °F 21.0 °F 88% 29.97 in 0.8 mi South 10.4 mph - 0.00 in Snow Light Snow
9:10 AM 24.8 °F 14.6 °F 21.2 °F 86% 29.92 in 1.2 mi SSE 10.4 mph - 0.00 in Snow Light Snow
9:37 AM 24.8 °F 14.6 °F 21.2 °F 86% 29.91 in 0.8 mi SSE 10.4 mph - 0.01 in Snow Light Snow
9:49 AM 24.8 °F 14.0 °F 21.2 °F 86% 29.91 in 1.0 mi SSE 11.5 mph - 0.01 in Snow Light Snow
9:53 AM 26.1 °F 15.0 °F 21.9 °F 84% 29.95 in 1.0 mi South 12.7 mph - 0.01 in Snow Light Snow
10:20 AM 26.6 °F 15.7 °F 23.0 °F 86% 29.90 in 2.5 mi South 12.7 mph - 0.00 in Snow Light Snow
10:40 AM 26.6 °F 15.2 °F 24.8 °F 93% 29.89 in 1.5 mi South 13.8 mph - 0.00 in Snow Light Snow
10:53 AM 27.0 °F 15.6 °F 24.1 °F 89% 29.94 in 1.0 mi South 13.8 mph - 0.00 in Snow Light Snow
11:25 AM 26.6 °F 16.8 °F 24.8 °F 93% 29.88 in 0.8 mi SSE 10.4 mph - 0.00 in Snow Light Snow
11:53 AM 28.0 °F 17.5 °F 25.0 °F 88% 29.90 in 0.8 mi SSE 12.7 mph - 0.01 in Snow Light Snow
12:41 PM 28.4 °F 17.5 °F 24.8 °F 86% 29.83 in 1.2 mi SSE 13.8 mph - 0.00 in Snow Light Snow
12:51 PM 28.4 °F 18.0 °F 24.8 °F 86% 29.82 in 0.8 mi SSE 12.7 mph - 0.00 in Snow Light Snow
12:53 PM 28.9 °F 19.2 °F 25.0 °F 85% 29.86 in 0.8 mi South 11.5 mph - 0.01 in Snow Light Snow
1:03 PM 28.4 °F 17.0 °F 26.6 °F 93% 29.81 in 0.8 mi South 15.0 mph - 0.00 in Snow Light Snow
1:09 PM 28.4 °F 17.0 °F 26.6 °F 93% 29.81 in 1.0 mi South 15.0 mph - 0.00 in Snow Light Snow
1:27 PM 28.4 °F 16.6 °F 26.6 °F 93% 29.80 in 1.8 mi South 16.1 mph - 0.00 in Snow Light Snow
1:35 PM 28.4 °F 18.5 °F 24.8 °F 86% 29.80 in 1.2 mi South 11.5 mph - 0.00 in Snow Light Snow
1:46 PM 28.4 °F 18.5 °F 26.6 °F 93% 29.80 in 0.8 mi South 11.5 mph 20.7 mph 0.00 in Snow Light Snow
1:53 PM 28.9 °F 18.2 °F 26.1 °F 89% 29.83 in 0.8 mi South 13.8 mph - 0.00 in Snow Light Snow
2:20 PM 28.4 °F 17.5 °F 26.6 °F 93% 29.79 in 1.0 mi South 13.8 mph - 0.01 in Snow Light Snow
2:26 PM 28.4 °F 18.0 °F 26.6 °F 93% 29.79 in 0.8 mi South 12.7 mph - 0.01 in Snow Light Snow
2:45 PM 28.4 °F 17.0 °F 26.6 °F 93% 29.78 in 1.2 mi South 15.0 mph - 0.01 in Snow Light Snow
2:50 PM 28.4 °F 18.0 °F 24.8 °F 86% 29.78 in 2.0 mi South 12.7 mph - 0.01 in Snow Light Snow
2:53 PM 28.9 °F 18.2 °F 25.0 °F 85% 29.82 in 3.0 mi South 13.8 mph - 0.01 in Snow Light Snow
3:38 PM 28.4 °F 18.5 °F 26.6 °F 93% 29.78 in 2.5 mi South 11.5 mph - 0.00 in   Overcast
3:53 PM 28.0 °F 18.1 °F 26.1 °F 92% 29.81 in 2.5 mi South 11.5 mph - 0.00 in   Overcast
4:12 PM 28.4 °F 19.1 °F 26.6 °F 93% 29.76 in 1.8 mi South 10.4 mph - N/A   Overcast
4:46 PM 28.4 °F 19.7 °F 26.6 °F 93% 29.76 in 2.0 mi South 9.2 mph - N/A   Overcast
4:53 PM 28.0 °F 18.6 °F 26.1 °F 92% 29.79 in 2.5 mi South 10.4 mph - N/A   Overcast
5:15 PM 28.4 °F 19.7 °F 26.6 °F 93% 29.75 in 3.0 mi South 9.2 mph - N/A   Overcast
5:53 PM 28.0 °F 20.0 °F 27.0 °F 96% 29.79 in 5.0 mi South 8.1 mph - N/A   Overcast
6:53 PM 28.9 °F 21.9 °F 27.0 °F 92% 29.79 in 3.0 mi South 6.9 mph - N/A   Overcast
7:25 PM 28.4 °F 22.2 °F 26.6 °F 93% 29.75 in 3.0 mi South 5.8 mph - 0.01 in   Overcast
7:48 PM 28.4 °F 21.2 °F 26.6 °F 93% 29.75 in 2.5 mi South 6.9 mph - 0.01 in   Overcast
7:53 PM 28.9 °F 21.9 °F 27.0 °F 92% 29.78 in 2.5 mi South 6.9 mph - 0.01 in   Overcast
8:53 PM 28.9 °F 21.9 °F 28.0 °F 96% 29.78 in 2.5 mi South 6.9 mph - N/A   Overcast
9:31 PM 28.4 °F 22.2 °F 28.4 °F 100% 29.74 in 3.0 mi South 5.8 mph - 0.00 in Snow Light Snow
9:38 PM 28.4 °F 21.2 °F 28.4 °F 100% 29.74 in 2.5 mi SSW 6.9 mph - 0.00 in Snow Light Snow
9:53 PM 28.9 °F 23.9 °F 28.0 °F 96% 29.77 in 2.0 mi South 4.6 mph - 0.00 in Snow Light Snow
10:05 PM 28.4 °F 23.3 °F 26.6 °F 93% 29.74 in 2.0 mi South 4.6 mph - 0.00 in Snow Light Snow
10:19 PM 28.4 °F 22.2 °F 26.6 °F 93% 29.74 in 3.0 mi SSW 5.8 mph - 0.00 in Snow Light Snow
10:33 PM 28.4 °F 22.2 °F 26.6 °F 93% 29.74 in 4.0 mi SSW 5.8 mph - 0.00 in   Overcast
10:53 PM 28.9 °F 21.9 °F 27.0 °F 92% 29.77 in 3.0 mi SSW 6.9 mph - 0.00 in Snow Light Snow
10:55 PM 28.4 °F 21.2 °F 26.6 °F 93% 29.74 in 3.0 mi SSW 6.9 mph - 0.00 in Snow Light Snow
11:16 PM 28.4 °F 23.3 °F 26.6 °F 93% 29.74 in 2.5 mi SSW 4.6 mph - 0.00 in Snow Light Snow
11:37 PM 28.4 °F 22.2 °F 26.6 °F 93% 29.74 in 3.0 mi SSW 5.8 mph - 0.00 in Snow Light Snow
11:53 PM 28.9 °F 22.8 °F 27.0 °F 92% 29.76 in 4.0 mi SSW 5.8 mph - 0.00 in Snow Light Snow